Regional Weather Roundup
Issued by NWS Kansas City/Pleasant Hill, MO

Home | Current Version | Previous Version | Graphics & Text | Print | Product List | Glossary Off
Versions: 1 2 3 4 5 6 7 8 9 10 11 12 13 14 15 16 17 18 19 20 21 22 23 24 25 26 27 28 29 30 31 32 33 34 35 36 37 38 39 40 41 42 43 44 45 46 47 48 49 50

000
ASUS43 KEAX 241710
RWREAX

WEATHER ROUNDUP FOR EASTERN KANSAS AND NORTHWEST MISSOURI
NATIONAL WEATHER SERVICE KANSAS CITY/PLEASANT HILL MO
1100 AM CST FRI NOV 24 2017

KSZ040-057-103>105-MOZ028-029-037-043-241800-
...KANSAS CITY METROPOLITAN AREA...

CITY           SKY/WX    TMP DP  RH WIND       PRES   REMARKS
K.C. INTL      PTSUNNY   63  37  38 SW24G32   29.62F
K.C. DOWNTOWN  SUNNY     67  37  33 SW18G25   29.64F
LEES SUMMIT    SUNNY     67  36  31 SW24G31   29.67F
OLATHE - IXD   SUNNY     65  37  35 S23G33    29.68F
OLATHE - OJC   SUNNY     64  37  36 S16G25    29.67F
LAWRENCE       SUNNY     65  38  36 S13       29.66F

$$

MOZ001>008-011>017-020>025-030>033-038>040-044>046-053-054-241800-
...NORTHERN AND CENTRAL MISSOURI...

CITY           SKY/WX    TMP DP  RH WIND       PRES   REMARKS
ST. JOSEPH     SUNNY     66  38  35 SW17      29.60F
MOSBY          SUNNY     66  34  30 SW17G24   29.64F
WARRENSBURG    SUNNY     64  34  32 S15G21    29.70F
WHITEMAN AFB   SUNNY     65  36  34 S18       29.66F
CLINTON        SUNNY     64  36  34 MISG      29.74F
SEDALIA        SUNNY     65  37  35 SW18G29   29.72F
WARSAW         NOT AVBL
CHILLICOTHE      N/A     63  38  39 S18       29.61F
KIRKSVILLE     SUNNY     63  37  38 SW21G29   29.61F

$$

MOZ041-047>049-056>058-063>065-088>090-097-241800-
...EASTERN AND SOUTHERN MISSOURI...

CITY           SKY/WX    TMP DP  RH WIND       PRES   REMARKS
ST. LOUIS INTL MOSUNNY   61  34  36 S8        29.79F
SPIRIT OF STL  SUNNY     65  35  33 SW8       29.77F
COLUMBIA       SUNNY     65  36  34 S17       29.73F
JEFFERSON CITY SUNNY     64  35  34 S8        29.75F
ROLLA          SUNNY     65  34  31 SW18      29.81F
OSAGE BEACH    SUNNY     68  35  29 S15G26    29.78F
SPRINGFIELD    SUNNY     64  37  36 S14       29.82F
BRANSON        MOSUNNY   66  32  28 SW10G17   29.87F
JOPLIN         SUNNY     68  35  29 S18G28    29.80F
WEST PLAINS    SUNNY     63  32  31 S9        29.89F

$$

IAZ060-094-KSZ022-034>040-054-083-096-NEZ052-066-093-241800-
...KANSAS...SOUTHEAST NEBRASKA AND IOWA...

CITY           SKY/WX    TMP DP  RH WIND       PRES   REMARKS
TOPEKA         SUNNY     64  38  38 SW15G23   29.65F
MANHATTAN      MOSUNNY   65  39  38 SW20      29.64F
EMPORIA        CLOUDY    67  38  34 SW12      29.70F
CHANUTE        SUNNY     63  36  36 S17       29.76F
WICHITA        CLOUDY    62  40  44 S12       29.73F
OMAHA          MOSUNNY   64  40  41 SW6       29.49F
LINCOLN        SUNNY     70  39  32 W14G20    29.53F
FALLS CITY     SUNNY     67  40  37 SW16      29.55F
LAMONI         SUNNY     64  40  41 SW22G30   29.53F
DES MOINES     MOSUNNY   63  38  39 SW22      29.47F

$$




USA.gov is the U.S. government's official web portal to all federal, state and local government web resources and services.